Orbital Elements at Epoch 2459200.5 (2020-Dec-17.0) TDB
Reference: JPL 35 (heliocentric ecliptic J2000)
Element | Value | Uncertainty (1-sigma) | Units |
e | .06823934575935692 | 3.709e-08 | |
a | 2.234616098056496 | 6.3502e-09 | au |
q | 2.082127357501794 | 8.336e-08 | au |
i | 6.519789060720464 | 4.0437e-06 | deg |
node | 24.99279427789862 | 3.038e-05 | deg |
peri | 116.2926222391955 | 4.0414e-05 | deg |
M | 336.2632683488485 | 2.6756e-05 | deg |
tp | 2459280.949107561556 (2021-Mar-07.44910756) | 9.0722e-05 | TDB |
period | 1220.120745677943 3.34 | 5.2009e-06 1.424e-08 | d yr |
n | .2950527652900214 | 1.2577e-09 | deg/d |
Q | 2.387104838611198 | 6.7835e-09 | au |
|
| | Orbit Determination Parameters
Additional Information
|